Tracking 29892 objects as of 21-Nov-2024
HD Live streaming from Space Station
objects crossing your sky now

STARLINK-5828

Track STARLINK-5828 now!
10-day predictions
STARLINK-5828 is classified as:


NORAD ID: 57070
Int'l Code: 2023-088Y
Perigee: 565.8 km
Apogee: 566.5 km
Inclination: 43.0 °
Period: 95.8 minutes
Semi major axis: 6937 km
RCS: Unknown
Launch date: June 22, 2023
Source: United States (US)
Launch site: AIR FORCE WESTERN TEST RANGE (AFWTR)
Your satellite tracking list
Your tracking list is empty




NASA's NSSDC Master Catalog

Two Line Element Set (TLE):
1 57070U 23088Y   24325.90391497 -.00007627  00000-0 -54991-3 0  9993
2 57070  42.9994 149.4392 0000464 233.6126 126.4674 15.02555514 79242
Source of the keplerian elements: AFSPC